Regional Weather Roundup
Issued by NWS

Home | Current Version | Previous Version | Text Only | Print | Product List | Glossary Off
Versions: 1 2 3 4 5 6 7 8 9 10 11 12 13 14 15 16 17 18 19 20 21 22 23 24 25 26 27 28 29 30 31 32 33 34 35 36 37 38 39 40 41 42 43 44 45 46 47 48 49 50

000
ASUS43 KMPX 020910
RWRMN
WEATHER ROUNDUP FOR MINNESOTA
NATIONAL WEATHER SERVICE TWIN CITIES/CHANHASSEN MN
400 AM CDT WED SEP 02 2015


NOTE: "FAIR" INDICATES FEW OR NO CLOUDS BELOW 12,000 FEET WITH NO
SIGNIFICANT WEATHER AND/OR OBSTRUCTIONS TO VISIBILITY. N/A MEANS
CURRENT SKY AND/OR WEATHER CONDITIONS ARE NOT AVAILABLE.

MNZ060>063-068>070-021000-
   Twin Cities Metro

CITY           SKY/WX    TMP DP  RH WIND       PRES   REMARKS
TWIN CITIES    RAIN      71  68  90 W12       29.93R FOG
ST PAUL        RAIN      73  71  93 W10G22    29.93R FOG
CRYSTAL        TSTM      73  68  84 W13G22    29.92R
BLAINE         HVY RAIN  75  75 100 SW9       29.92R
LAKEVILLE      RAIN      70  70 100 W9        29.95R
EDEN PRAIRIE   TSTM      70  67  90 SW10      29.93F FOG
SOUTH ST PAUL  LGT RAIN  73  70  90 W14G25    29.93R
LAKE ELMO      LGT RAIN  72  72 100 S5        29.93S
$$
MNZ001>005-007-008-013>017-022>024-027-028-021000-
   Northwest Minnesota

CITY           SKY/WX    TMP DP  RH WIND       PRES   REMARKS
BEMIDJI        CLEAR     62  61  96 SE3       29.89F
HALLOCK        CLEAR     66  61  82 SE8       29.81S
ROSEAU         CLEAR     63  55  77 S7        29.86R
WARROAD        CLEAR     61  57  88 SE3       29.87S
THIEF RVR FALL CLEAR     64  61  88 E6        29.85S
CROOKSTON      CLEAR     64  63  94 S8        29.84R
FOSSTON        CLEAR     66  61  82 SE8       29.87S
DETROIT LAKES  PTCLDY    70  68  94 S9        29.89S FOG
MOORHEAD       CLEAR     70  68  94 S9        29.84S
PARK RAPIDS    MOCLDY    66  64  93 S3        29.90S FOG
MAHNOMEN       FAIR      67  66  96 SE7       29.87S
$$
MNZ006-009>011-018-025>026-021000-
   North Central Minnesota

CITY           SKY/WX    TMP DP  RH WIND       PRES   REMARKS
BAUDETTE       CLEAR     58  54  86 SE3       29.88S
FLAG ISLAND    CLEAR     68  63  83 SE5       29.87R
INTL FALLS     CLEAR     53  51  93 SE5       29.91S
WASKISH        CLEAR     63  55  77 SE3       29.89S
BIG FORK       CLEAR     57  55  94 CALM      29.92S
LONGVILLE      MOCLDY    61  61 100 CALM      29.91S
GRAND RAPIDS     N/A     63  59  88 CALM      29.92F
CRANE LAKE     CLEAR     48  48 100 CALM      29.95S
ORR            CLEAR     54  52  94 CALM      29.91S
COOK           PTCLDY    54  54 100 CALM      29.93S
WALKER         FAIR      65  65  99 CALM      29.90S
$$
MNZ012-019>021-037-021000-
   Northeast Minnesota

CITY           SKY/WX    TMP DP  RH WIND       PRES   REMARKS
DULUTH         FOG       70  68  93 E5        29.93R VSB 3/4
ELY            PTCLDY    52  52 100 CALM      29.95S
HIBBING        MOCLDY    62  59  90 CALM      29.94R
EVELETH        MOCLDY    63  59  88 CALM      29.95R
DULUTH HARBOR  CLOUDY    64  63  94 CALM      29.92F THUNDER
TWO HARBORS    CLOUDY    70  61  73 CALM      29.90F
SILVER BAY     CLOUDY    63  57  82 CALM      29.92F
GRAND MARAIS     N/A     55  53  93 NW6       29.94R
G MARAIS ARPRT PTCLDY    50  46  87 N3        29.99S
$$
MNZ029>031-032-039>041-046>048-054>057-064-021000-
   West Central Minnesota

CITY           SKY/WX    TMP DP  RH WIND       PRES   REMARKS
FERGUS FALLS   CLEAR     70  66  88 SE6       29.86S
WHEATON        CLEAR     61  61 100 CALM      29.87R
MORRIS         PTCLDY    64  63  94 SE10      29.86S
ALEXANDRIA     MOCLDY    68  64  87 S6        29.91S
ELBOW LAKE     FAIR      65  63  90 SE8       29.86S
WADENA         PTCLDY    66  66 100 SE6       29.88F FOG
GLENWOOD       MOCLDY    64  63  94 E3        29.91R
APPLETON       PTCLDY    66  61  82 SE6       29.86S
BENSON         MOCLDY    68  63  83 S12       29.87F
ORTONVILLE     PTCLDY    64  63  94 SE6       29.86R
MADISON        PTCLDY    64  63  94 S3        29.86S
WILLMAR        FAIR      70  63  78 SE12      29.90F
$$
MNZ033>034-036-042>043-049>051-058-059-021000-
   Central Minnesota

CITY           SKY/WX    TMP DP  RH WIND       PRES   REMARKS
ST CLOUD       CLOUDY    73  72  96 S13       29.91R
SAUK CENTRE    FAIR      67  66  95 S3        29.91S
PAYNESVILLE    CLOUDY    69  67  92 E7        29.90F
AITKIN         CLOUDY    72  66  83 CALM      29.90S HAZE
PINE RIVER     MOCLDY    64  64 100 CALM      29.94S FOG
BRAINERD       CLOUDY    72  68  87 CALM      29.91S
STAPLES        FOG       66  66 100 CALM      29.90S VSB 1
LONG PRAIRIE   MOCLDY    68  66  94 SE3       29.92R FOG
LITTLE FALLS   CLOUDY    72  68  88 SE3       29.91R
LITCHFIELD     DRIZZLE   70  70 100 CALM      29.92S
BUFFALO        RAIN      69  64  83 S12G17    29.92F
MAPLE LAKE     CLOUDY    70  68  94 CALM      29.92F
$$
MNZ037-044-045-052-053-021000-
   East Central Minnesota

CITY           SKY/WX    TMP DP  RH WIND       PRES   REMARKS
PRINCETON      RAIN      75  73  94 SW6       29.91S
MORA           CLOUDY    72  70  94 S7        29.92S
CAMBRIDGE      CLOUDY    75  66  73 S5        29.89F
RUSH CITY      CLOUDY    74  72  93 SW3       29.90F
MOOSE LAKE     CLOUDY    70  70 100 NE3       29.89F FOG
HINCKLEY       LGT RAIN  72  72 100 CALM      29.89F
CLOQUET        CLOUDY    70  68  94 SE5       29.92F FOG
MCGREGOR       CLOUDY    72  70  94 CALM      29.91F
$$
MNZ071>073-080-081-089-090-097-098-021000-
   Southwest Minnesota

CITY           SKY/WX    TMP DP  RH WIND       PRES   REMARKS
MONTEVIDEO     MOCLDY    66  64  94 S8        29.88S
GRANITE FALLS  CLOUDY    66  65  96 E5        29.89S
CANBY          PTCLDY    64  61  92 S3        29.87F
MARSHALL       PTCLDY    64  57  77 SE12      29.88F
REDWOOD FALLS  CLOUDY    67  64  90 SE9       29.88F
OLIVIA         CLOUDY    66  61  82 SE9       29.87F
PIPESTONE      CLEAR     64  63  94 SE6       29.88S FOG
WINDOM         PTCLDY    68  64  88 E10       29.91S
WORTHINGTON    CLEAR     68  64  88 E6        29.90R
JACKSON        CLEAR     70  68  94 NE6       29.92R FOG
TRACY          PTCLDY    67  65  94 SE8       29.89S
SLAYTON        CLEAR     64  64 100 CALM      29.90S FOG
$$
MNZ065>067-074>077-082>085-091>093-021000-
   South Central Minnesota

CITY           SKY/WX    TMP DP  RH WIND       PRES   REMARKS
MANKATO        CLOUDY    66  63  88 E14       29.95F THUNDER
NEW ULM        CLOUDY    64  64 100 SE10      29.91S
ST JAMES       MOCLDY    68  64  88 E12       29.92F
FAIRMONT       CLOUDY    73  64  73 S7        29.91R
GLENCOE        RAIN      67  66  97 SE3       29.92F
FARIBAULT      TSTM      70  68  94 W14G21    29.98R
OWATONNA       TSTM      73  70  88 W17G25    29.98R
WASECA         TSTM      66  63  88 NW16G28   29.98R
ALBERT LEA     CLOUDY    72  70  94 CALM      29.95R
$$
MNZ078>079-086>088-094>096-021000-
   Southeast Minnesota

CITY           SKY/WX    TMP DP  RH WIND       PRES   REMARKS
ROCHESTER      MOCLDY    71  68  90 S8        29.97R
RED WING       CLOUDY    73  72  94 CALM      29.92S
STANTON        LGT RAIN  74  70  87 SW6       29.94R
DODGE CENTER   CLOUDY    72  68  88 S6        29.97R
WINONA         MOCLDY    73  72  94 CALM      29.95R
AUSTIN         MOCLDY    73  70  88 S6        29.95S
PRESTON        MOCLDY    71  67  88 S8        29.99R
$$
ABBREVIATIONS USED IN REMARKS
   TC - TEMPERATURES IN CELSIUS
  WCI - WIND CHILL INDEX
   HX - HEAT INDEX
  VSB - VISIBILITY
$$


USA.gov is the U.S. government's official web portal to all federal, state and local government web resources and services.